Location: Thompson
(55.7500°N, 97.8670°W)
Time: 19:52:25
(UTC-05:00)

Cosmos 1666 - Visible Passes

Search period start: 26 July 2017 00:00
Search period end: 05 August 2017 00:00
Orbit: 502 x 524 km, 82.5° (Epoch: 26 July)

Date Brightness Start Highest point End Pass type
(mag) Time Alt. Az. Time Alt. Az. Time Alt. Az.
26 Jul 5.1 01:36:24 10° ESE 01:38:29 14° E 01:40:35 10° NE visible
26 Jul 2.7 03:11:00 20° SSW 03:13:36 76° WNW 03:17:30 10° N visible
27 Jul 5.2 01:21:11 10° ESE 01:22:44 12° E 01:24:17 10° ENE visible
27 Jul 2.7 02:55:22 23° S 02:57:44 90° SSE 03:01:39 10° NNE visible
27 Jul 5.0 04:31:57 10° W 04:34:03 14° WNW 04:36:09 10° NNW visible
28 Jul 5.4 01:06:31 10° E 01:06:59 10° E 01:07:27 10° ENE visible
28 Jul 2.7 02:39:44 25° S 02:41:53 76° E 02:45:47 10° NNE visible
28 Jul 4.9 04:15:37 10° W 04:18:05 16° WNW 04:20:33 10° NNW visible
29 Jul 2.9 02:24:04 27° S 02:26:02 63° E 02:29:54 10° NNE visible
29 Jul 4.7 03:59:22 10° WSW 04:02:07 18° WNW 04:04:54 10° NNW visible
30 Jul 3.2 02:08:24 27° SSE 02:10:12 52° E 02:14:00 10° NNE visible
30 Jul 4.5 03:43:21 11° WSW 03:46:10 21° WNW 03:49:12 10° NNW visible
31 Jul 3.4 01:52:43 27° SSE 01:54:21 44° E 01:58:05 10° NNE visible
31 Jul 4.4 03:27:40 13° WSW 03:30:13 24° WNW 03:33:28 10° N visible
01 Aug 3.7 01:37:02 26° SE 01:38:32 37° E 01:42:09 10° NNE visible
01 Aug 4.2 03:11:59 16° WSW 03:14:18 28° WNW 03:17:42 10° N visible
02 Aug 3.9 01:21:20 24° SE 01:22:43 31° E 01:26:12 10° NNE visible
02 Aug 3.9 02:56:17 19° WSW 02:58:22 32° WNW 03:01:56 10° N visible
03 Aug 4.2 01:05:37 22° ESE 01:06:55 26° E 01:10:13 10° NNE visible
03 Aug 3.7 02:40:34 23° WSW 02:42:27 38° WNW 02:46:08 10° N visible
04 Aug 4.3 00:49:54 19° ESE 00:51:07 23° E 00:54:12 10° NE visible
04 Aug 3.4 02:24:51 27° SW 02:26:33 45° WNW 02:30:19 10° N visible
